Regional Weather Roundup
Issued by NWS

Home | Current Version | Previous Version | Text Only | Print | Product List | Glossary Off
Versions: 1 2 3 4 5 6 7 8 9 10 11 12 13 14 15 16 17 18 19 20 21 22 23 24 25 26 27 28 29 30 31 32 33 34 35 36 37 38 39 40 41 42 43 44 45 46 47 48 49 50

000
ASUS43 KMPX 061501
RWRMN
WEATHER ROUNDUP FOR MINNESOTA
NATIONAL WEATHER SERVICE TWIN CITIES/CHANHASSEN MN
1000 AM CDT WED MAY 06 2015


NOTE: "FAIR" INDICATES FEW OR NO CLOUDS BELOW 12,000 FEET WITH NO
SIGNIFICANT WEATHER AND/OR OBSTRUCTIONS TO VISIBILITY. N/A MEANS
CURRENT SKY AND/OR WEATHER CONDITIONS ARE NOT AVAILABLE.

MNZ060>063-068>070-061600-
   Twin Cities Metro

CITY           SKY/WX    TMP DP  RH WIND       PRES   REMARKS
TWIN CITIES    CLOUDY    58  55  90 E12       30.04F FOG
ST PAUL        LGT RAIN  57  56  96 E9        30.05F FOG
CRYSTAL        CLOUDY    58  55  90 SE12      30.04F FOG
BLAINE         CLOUDY    59  57  94 SE9       30.06S FOG
LAKEVILLE      CLOUDY    55  55 100 SE8       30.04F FOG
EDEN PRAIRIE   CLOUDY    58  55  90 E9        30.03F FOG
SOUTH ST PAUL  LGT RAIN  57  56  94 E3        30.05F
LAKE ELMO      CLOUDY    55  55 100 E6        30.08F FOG
$$
MNZ001>005-007-008-013>017-022>024-027-028-061600-
   Northwest Minnesota

CITY           SKY/WX    TMP DP  RH WIND       PRES   REMARKS
BEMIDJI        PTSUNNY   63  54  72 SE9       29.98F
HALLOCK        CLOUDY    66  55  68 S17G23    29.88F
ROSEAU         LGT RAIN  59  52  77 SE13      29.94F
WARROAD        CLOUDY    61  52  72 SE13      29.96F
THIEF RVR FALL PTSUNNY   66  55  68 S15G21    29.93S
CROOKSTON      PTSUNNY   64  55  72 S14       29.91F
FOSSTON        PTSUNNY   66  54  63 SE10G18   29.94F
DETROIT LAKES  CLOUDY    57  54  88 S12G23    29.96F
MOORHEAD       LGT RAIN  57  55  94 SE15      29.92F
PARK RAPIDS    CLOUDY    59  53  80 SE16      29.98F
MAHNOMEN       FAIR      61  55  78 S13       29.94F
$$
MNZ006-009>011-018-025>026-061600-
   North Central Minnesota

CITY           SKY/WX    TMP DP  RH WIND       PRES   REMARKS
BAUDETTE       LGT RAIN  52  47  83 SE10      30.00S
FLAG ISLAND    CLOUDY    55  43  62 SE8       29.97F
INTL FALLS     LGT RAIN  56  47  71 VRB5      30.03F
WASKISH        PTSUNNY   57  50  77 CALM      29.99F
BIG FORK       CLOUDY    57  48  72 SE7       30.03F
LONGVILLE      CLOUDY    59  54  82 SE9       30.02S
GRAND RAPIDS   CLOUDY    55  46  71 SE10      30.04F
CRANE LAKE     PTSUNNY   61  43  51 S6        30.08F
COOK           CLOUDY    54  46  76 E3        30.07F
WALKER         CLOUDY    58  52  81 S14       30.00F
$$
MNZ012-019>021-037-061600-
   Northeast Minnesota

CITY           SKY/WX    TMP DP  RH WIND       PRES   REMARKS
DULUTH         CLOUDY    52  43  71 E13       30.09F
ELY            CLOUDY    61  39  44 S7        30.09F
HIBBING        CLOUDY    52  47  83 SE6       30.08F
EVELETH        CLOUDY    52  41  66 SE8       30.10F
DULUTH HARBOR  CLOUDY    43  37  81 NE9       30.12F
TWO HARBORS    CLOUDY    52  45  76 NE6       30.10F
SILVER BAY     CLOUDY    55  32  41 NE7       30.12S
GRAND MARAIS     N/A     46  33  60 NE7       30.17F
G MARAIS ARPRT CLOUDY    57  25  28 SE8       30.17F
$$
MNZ029>031-032-039>041-046>048-054>057-064-061600-
   West Central Minnesota

CITY           SKY/WX    TMP DP  RH WIND       PRES   REMARKS
FERGUS FALLS   CLOUDY    59  57  94 SE15      29.95F
WHEATON        LGT RAIN  55  54  94 SE20      29.93F
MORRIS         LGT RAIN  57  57 100 SE17      29.93F
ALEXANDRIA     CLOUDY    56  55  97 SE15G21   29.99F FOG
ELBOW LAKE     LGT RAIN  58  55  91 SE14G20   29.94F
WADENA         LGT RAIN  55  54  94 SE14      29.98S
GLENWOOD       CLOUDY    55  55 100 SE13      29.99S VSB 3/4
APPLETON       LGT RAIN  61  57  88 SE15      29.92F
BENSON         LGT RAIN  57  55  94 SE14G20   29.94F
ORTONVILLE     LGT RAIN  57  55  94 SE14      29.91F
MADISON        CLOUDY    61  59  94 SE16      29.91F FOG
WILLMAR        LGT RAIN  59  59 100 E15G21    29.97F
$$
MNZ033>034-036-042>043-049>051-058-059-061600-
   Central Minnesota

CITY           SKY/WX    TMP DP  RH WIND       PRES   REMARKS
ST CLOUD       CLOUDY    57  55  93 SE9       30.02F FOG
SAUK CENTRE    CLOUDY    57  55  94 SE13      30.00F FOG
PAYNESVILLE    CLOUDY    55  55 100 E12       30.00F FOG
AITKIN         CLOUDY    57  52  82 SE12      30.03F
PINE RIVER     CLOUDY    57  54  88 SE12      30.04F
BRAINERD       CLOUDY    56  53  90 SE12      30.03F FOG
STAPLES        CLOUDY    55  54  94 SE8       30.00F FOG
LONG PRAIRIE   CLOUDY    55  54  94 E13       30.00F FOG
LITTLE FALLS   FOG       54  52  94 SE7       30.02F VSB 3/4
LITCHFIELD     CLOUDY    57  57 100 SE13      30.00F FOG
BUFFALO        CLOUDY    58  54  88 E8        30.04F FOG
MAPLE LAKE     CLOUDY    58  58  97 E7        30.03F FOG
$$
MNZ037-044-045-052-053-061600-
   East Central Minnesota

CITY           SKY/WX    TMP DP  RH WIND       PRES   REMARKS
PRINCETON      CLOUDY    57  55  94 E7        30.04F FOG
MORA           CLOUDY    55  52  88 SE7       30.07F
CAMBRIDGE      CLOUDY    59  50  72 SE6       30.03F HAZE
RUSH CITY      CLOUDY    57  53  86 SE6       30.06F
MOOSE LAKE     CLOUDY    55  50  82 SE3       30.06S
HINCKLEY       CLOUDY    55  52  88 SE5       30.07F
CLOQUET        CLOUDY    48  41  76 E7        30.08F
MCGREGOR       CLOUDY    55  52  88 SE10      30.06S
$$
MNZ071>073-080-081-089-090-097-098-061600-
   Southwest Minnesota

CITY           SKY/WX    TMP DP  RH WIND       PRES   REMARKS
MONTEVIDEO     DRIZZLE   61  61 100 S17       29.93F
GRANITE FALLS  CLOUDY    61  59  94 E20       29.95F FOG
CANBY          CLOUDY    61  60  96 SE13G20   29.91F FOG
MARSHALL       CLOUDY    63  57  82 SE14      29.91F
REDWOOD FALLS  CLOUDY    61  59  93 SE16G23   29.95F FOG
OLIVIA         CLOUDY    57  55  94 SE14G20   29.96F FOG
WINDOM         CLOUDY    61  59  94 SE20      29.96F
WORTHINGTON    CLOUDY    63  57  82 SE20G26   29.92F
JACKSON        CLOUDY    61  61 100 SE20G25   29.96F FOG
TRACY          CLOUDY    65  62  89 SE15G21   29.94S FOG
SLAYTON        CLOUDY    63  62  97 SE24G32   29.92F FOG
$$
MNZ065>067-074>077-082>085-091>093-061600-
   South Central Minnesota

CITY           SKY/WX    TMP DP  RH WIND       PRES   REMARKS
MANKATO        CLOUDY    63  57  82 SE16      30.01F
NEW ULM        CLOUDY    61  59  94 SE14      29.98F FOG
ST JAMES       CLOUDY    63  61  94 SE18      29.99F FOG
FAIRMONT       CLOUDY    63  46  55 SE16      29.97F
GLENCOE        CLOUDY    60  59  96 E17       30.00F FOG
FARIBAULT      CLOUDY    61  57  88 E9        30.04F FOG
OWATONNA       PTSUNNY   61  55  82 SE18      30.03F FOG
WASECA         CLOUDY    59  54  82 SE16G23   30.03F HAZE
ALBERT LEA     CLOUDY    57  57 100 SE13G20   30.03F FOG
$$
MNZ078>079-086>088-094>096-061600-
   Southeast Minnesota

CITY           SKY/WX    TMP DP  RH WIND       PRES   REMARKS
ROCHESTER      CLOUDY    57  56  96 SE16      30.08F FOG
RED WING       RAIN      57  55  94 SE12      30.06F
STANTON        CLOUDY    60  56  88 SE8       30.04S FOG
DODGE CENTER   CLOUDY    59  57  94 SE14      30.06F FOG
WINONA         LGT RAIN  55  54  94 E6        30.10F
AUSTIN         CLOUDY    57  57 100 SE13      30.05F FOG
PRESTON        CLOUDY    56  55  98 SE9       30.09F FOG
$$
ABBREVIATIONS USED IN REMARKS
   TC - TEMPERATURES IN CELSIUS
  WCI - WIND CHILL INDEX
   HX - HEAT INDEX
  VSB - VISIBILITY
$$


USA.gov is the U.S. government's official web portal to all federal, state and local government web resources and services.